Time,TemperatureF,DewpointF,PressureIn,WindDirection,WindDirectionDegrees,WindSpeedMPH,WindSpeedGustMPH,Humidity,HourlyPrecipIn,Conditions,Clouds,dailyrainin,SolarRadiationWatts/m^2,SoftwareType,DateUTC
2013-07-06 00:01:00,69.0,65.0,-100.00,WSW,251,1.0,6.0,88,0.00,,,0.17,0.000000,,2013-07-06 04:01:00,
2013-07-06 00:33:00,69.0,65.0,-100.00,WSW,251,1.0,6.0,88,0.00,,,0.17,0.000000,,2013-07-06 04:33:00,
2013-07-06 00:43:00,69.0,65.0,-100.00,WSW,251,1.0,6.0,88,0.00,,,0.17,0.000000,,2013-07-06 04:43:00,
2013-07-06 00:53:00,69.0,65.0,-100.00,WSW,251,1.0,6.0,88,0.00,,,0.17,0.000000,,2013-07-06 04:53:00,
2013-07-06 01:01:00,68.0,66.0,-100.00,West,277,0.0,5.0,94,0.00,,,0.17,0.000000,,2013-07-06 05:01:00,
2013-07-06 01:22:00,68.0,66.0,-100.00,West,277,0.0,5.0,94,0.00,,,0.17,0.000000,,2013-07-06 05:22:00,
2013-07-06 01:34:00,68.0,66.0,-100.00,West,277,0.0,5.0,94,0.00,,,0.17,0.000000,,2013-07-06 05:34:00,
2013-07-06 01:43:00,68.0,66.0,-100.00,West,277,0.0,5.0,94,0.00,,,0.17,0.000000,,2013-07-06 05:43:00,
2013-07-06 01:53:00,68.0,66.0,-100.00,West,277,0.0,5.0,94,0.00,,,0.17,0.000000,,2013-07-06 05:53:00,
2013-07-06 02:01:00,67.0,66.0,-100.00,West,276,0.0,2.0,96,0.00,,,0.17,0.000000,,2013-07-06 06:01:00,
2013-07-06 02:22:00,67.0,66.0,-100.00,West,276,0.0,2.0,96,0.00,,,0.17,0.000000,,2013-07-06 06:22:00,
2013-07-06 02:34:00,67.0,66.0,-100.00,West,276,0.0,2.0,96,0.00,,,0.17,0.000000,,2013-07-06 06:34:00,
2013-07-06 02:43:00,67.0,66.0,-100.00,West,276,0.0,2.0,96,0.00,,,0.17,0.000000,,2013-07-06 06:43:00,
2013-07-06 02:53:00,67.0,66.0,-100.00,West,276,0.0,2.0,96,0.00,,,0.17,0.000000,,2013-07-06 06:53:00,
2013-07-06 03:01:00,67.0,66.0,-100.00,WNW,299,1.0,4.0,95,0.00,,,0.17,0.000000,,2013-07-06 07:01:00,
2013-07-06 03:33:00,67.0,66.0,-100.00,WNW,299,1.0,4.0,95,0.00,,,0.17,0.000000,,2013-07-06 07:33:00,
2013-07-06 03:44:00,67.0,66.0,-100.00,WNW,299,1.0,4.0,95,0.00,,,0.17,0.000000,,2013-07-06 07:44:00,
2013-07-06 03:52:00,67.0,66.0,-100.00,WNW,299,1.0,4.0,95,0.00,,,0.17,0.000000,,2013-07-06 07:52:00,
2013-07-06 04:01:00,68.0,64.0,-100.00,West,278,3.0,9.0,88,0.00,,,0.17,0.000000,,2013-07-06 08:01:00,
2013-07-06 04:34:00,68.0,64.0,-100.00,West,278,3.0,9.0,88,0.00,,,0.17,0.000000,,2013-07-06 08:34:00,
2013-07-06 04:43:00,68.0,64.0,-100.00,West,278,3.0,9.0,88,0.00,,,0.17,0.000000,,2013-07-06 08:43:00,
2013-07-06 04:54:00,68.0,64.0,-100.00,West,278,3.0,9.0,88,0.00,,,0.17,0.000000,,2013-07-06 08:54:00,
2013-07-06 05:01:00,67.0,64.0,-100.00,WNW,292,2.0,4.0,91,0.00,,,0.17,0.000000,,2013-07-06 09:01:00,
2013-07-06 05:22:00,67.0,64.0,-100.00,WNW,292,2.0,4.0,91,0.00,,,0.17,0.000000,,2013-07-06 09:22:00,
2013-07-06 05:34:00,67.0,64.0,-100.00,WNW,292,2.0,4.0,91,0.00,,,0.17,0.000000,,2013-07-06 09:34:00,
2013-07-06 05:43:00,67.0,64.0,-100.00,WNW,292,2.0,4.0,91,0.00,,,0.17,0.000000,,2013-07-06 09:43:00,
2013-07-06 05:53:00,67.0,64.0,-100.00,WNW,292,2.0,4.0,91,0.00,,,0.17,0.000000,,2013-07-06 09:53:00,
2013-07-06 06:01:00,67.0,65.0,-100.00,West,277,2.0,6.0,93,0.00,,,0.17,4.000000,,2013-07-06 10:01:00,
2013-07-06 06:33:00,67.0,65.0,-100.00,West,277,2.0,6.0,93,0.00,,,0.17,4.000000,,2013-07-06 10:33:00,
2013-07-06 06:43:00,67.0,65.0,-100.00,West,277,2.0,6.0,93,0.00,,,0.17,4.000000,,2013-07-06 10:43:00,
2013-07-06 06:53:00,67.0,65.0,-100.00,West,277,2.0,6.0,93,0.00,,,0.17,4.000000,,2013-07-06 10:53:00,
2013-07-06 07:01:00,68.0,65.0,-100.00,West,276,4.0,11.0,90,0.00,,,0.17,10.000000,,2013-07-06 11:01:00,
2013-07-06 07:22:00,68.0,65.0,-100.00,West,276,4.0,11.0,90,0.00,,,0.17,10.000000,,2013-07-06 11:22:00,
2013-07-06 07:33:00,68.0,65.0,-100.00,West,276,4.0,11.0,90,0.00,,,0.17,10.000000,,2013-07-06 11:33:00,
2013-07-06 07:43:00,68.0,65.0,-100.00,West,276,4.0,11.0,90,0.00,,,0.17,10.000000,,2013-07-06 11:43:00,
2013-07-06 07:53:00,68.0,65.0,-100.00,West,276,4.0,11.0,90,0.00,,,0.17,10.000000,,2013-07-06 11:53:00,
2013-07-06 08:01:00,69.0,65.0,-100.00,WNW,289,3.0,14.0,86,0.00,,,0.17,87.000000,,2013-07-06 12:01:00,
2013-07-06 08:22:00,69.0,65.0,-100.00,WNW,289,3.0,14.0,86,0.00,,,0.17,87.000000,,2013-07-06 12:22:00,
2013-07-06 08:33:00,69.0,65.0,-100.00,WNW,289,3.0,14.0,86,0.00,,,0.17,87.000000,,2013-07-06 12:33:00,
2013-07-06 08:43:00,69.0,65.0,-100.00,WNW,289,3.0,14.0,86,0.00,,,0.17,87.000000,,2013-07-06 12:43:00,
2013-07-06 08:52:00,69.0,65.0,-100.00,WNW,289,3.0,14.0,86,0.00,,,0.17,87.000000,,2013-07-06 12:52:00,
2013-07-06 09:01:00,68.0,65.0,-100.00,NW,309,2.0,7.0,89,0.00,,,0.14,83.000000,,2013-07-06 13:01:00,
2013-07-06 09:33:00,68.0,65.0,-100.00,NW,309,2.0,7.0,89,0.00,,,0.14,83.000000,,2013-07-06 13:33:00,
2013-07-06 09:43:00,68.0,65.0,-100.00,NW,309,2.0,7.0,89,0.00,,,0.14,83.000000,,2013-07-06 13:43:00,
2013-07-06 09:52:00,68.0,65.0,-100.00,NW,309,2.0,7.0,89,0.00,,,0.14,83.000000,,2013-07-06 13:52:00,
2013-07-06 10:01:00,69.0,65.0,-100.00,WNW,283,4.0,9.0,87,0.00,,,0.14,68.000000,,2013-07-06 14:01:00,
2013-07-06 10:34:00,69.0,65.0,-100.00,WNW,283,4.0,9.0,87,0.00,,,0.14,68.000000,,2013-07-06 14:34:00,
2013-07-06 10:42:00,69.0,65.0,-100.00,WNW,283,4.0,9.0,87,0.00,,,0.14,68.000000,,2013-07-06 14:42:00,
2013-07-06 10:53:00,69.0,65.0,-100.00,WNW,283,4.0,9.0,87,0.00,,,0.14,68.000000,,2013-07-06 14:53:00,
2013-07-06 11:01:00,70.0,65.0,-100.00,West,281,4.0,9.0,85,0.00,,,0.13,126.000000,,2013-07-06 15:01:00,
2013-07-06 11:22:00,70.0,65.0,-100.00,West,281,4.0,9.0,85,0.00,,,0.13,126.000000,,2013-07-06 15:22:00,
2013-07-06 11:34:00,70.0,65.0,-100.00,West,281,4.0,9.0,85,0.00,,,0.13,126.000000,,2013-07-06 15:34:00,
2013-07-06 11:43:00,70.0,65.0,-100.00,West,281,4.0,9.0,85,0.00,,,0.13,126.000000,,2013-07-06 15:43:00,
2013-07-06 11:53:00,70.0,65.0,-100.00,West,281,4.0,9.0,85,0.00,,,0.13,126.000000,,2013-07-06 15:53:00,
2013-07-06 12:30:00,73.0,65.0,-100.00,WNW,295,7.0,14.0,77,0.00,,,0.13,307.000000,,2013-07-06 16:30:00,
2013-07-06 13:36:00,74.0,60.0,-100.00,West,267,7.0,17.0,61,0.00,,,0.13,547.000000,,2013-07-06 17:36:00,
2013-07-06 13:45:00,74.0,60.0,-100.00,West,267,7.0,17.0,61,0.00,,,0.13,547.000000,,2013-07-06 17:45:00,
2013-07-06 14:00:00,74.0,60.0,-100.00,West,267,7.0,17.0,61,0.00,,,0.13,547.000000,,2013-07-06 18:00:00,
2013-07-06 15:34:00,79.0,61.0,-100.00,West,264,4.0,18.0,54,0.00,,,0.13,725.000000,,2013-07-06 19:34:00,
2013-07-06 15:50:00,79.0,61.0,-100.00,West,264,4.0,18.0,54,0.00,,,0.13,725.000000,,2013-07-06 19:50:00,
2013-07-06 16:00:00,79.0,61.0,-100.00,West,264,4.0,18.0,54,0.00,,,0.13,725.000000,,2013-07-06 20:00:00,
2013-07-06 16:01:00,79.0,59.0,-100.00,WNW,283,7.0,15.0,51,0.00,,,-99.99,603.000000,,2013-07-06 20:01:00,
2013-07-06 16:36:00,79.0,59.0,-100.00,WNW,283,7.0,15.0,51,0.00,,,-99.99,603.000000,,2013-07-06 20:36:00,
2013-07-06 17:01:00,80.0,59.0,-100.00,West,278,7.0,14.0,48,0.00,,,0.07,584.000000,,2013-07-06 21:01:00,
2013-07-06 17:50:00,80.0,59.0,-100.00,West,278,7.0,14.0,48,0.00,,,0.07,584.000000,,2013-07-06 21:50:00,
2013-07-06 18:00:00,80.0,59.0,-100.00,West,278,7.0,14.0,48,0.00,,,0.07,584.000000,,2013-07-06 22:00:00,
2013-07-06 18:01:00,79.0,57.0,-100.00,West,280,8.0,17.0,47,0.00,,,0.02,427.000000,,2013-07-06 22:01:00,
2013-07-06 18:36:00,79.0,57.0,-100.00,West,280,8.0,17.0,47,0.00,,,0.02,427.000000,,2013-07-06 22:36:00,
2013-07-06 18:49:00,79.0,57.0,-100.00,West,280,8.0,17.0,47,0.00,,,0.02,427.000000,,2013-07-06 22:49:00,
2013-07-06 19:01:00,77.0,59.0,-100.00,West,260,3.0,14.0,54,0.00,,,0.00,209.000000,,2013-07-06 23:01:00,
2013-07-06 20:00:00,77.0,59.0,-100.00,West,260,3.0,14.0,54,0.00,,,0.00,209.000000,,2013-07-07 00:00:00,
2013-07-06 20:01:00,74.0,60.0,-100.00,West,279,2.0,9.0,62,0.00,,,0.00,105.000000,,2013-07-07 00:01:00,
2013-07-06 20:50:00,74.0,60.0,-100.00,West,279,2.0,9.0,62,0.00,,,0.00,105.000000,,2013-07-07 00:50:00,
2013-07-06 21:01:00,66.0,61.0,-100.00,West,280,0.0,4.0,85,0.00,,,0.00,17.000000,,2013-07-07 01:01:00,
2013-07-06 21:36:00,66.0,61.0,-100.00,West,280,0.0,4.0,85,0.00,,,0.00,17.000000,,2013-07-07 01:36:00,
2013-07-06 22:01:00,61.0,58.0,-100.00,South,184,0.0,1.0,91,0.00,,,0.00,0.000000,,2013-07-07 02:01:00,
2013-07-06 22:34:00,61.0,58.0,-100.00,South,184,0.0,1.0,91,0.00,,,0.00,0.000000,,2013-07-07 02:34:00,
2013-07-06 22:55:00,61.0,58.0,-100.00,South,184,0.0,1.0,91,0.00,,,0.00,0.000000,,2013-07-07 02:55:00,
2013-07-06 23:01:00,59.0,57.0,-100.00,ESE,120,0.0,2.0,94,0.00,,,0.00,0.000000,,2013-07-07 03:01:00,
2013-07-06 23:33:00,59.0,57.0,-100.00,ESE,120,0.0,2.0,94,0.00,,,0.00,0.000000,,2013-07-07 03:33:00,
2013-07-06 23:44:00,59.0,57.0,-100.00,ESE,120,0.0,2.0,94,0.00,,,0.00,0.000000,,2013-07-07 03:44:00,